[[{"header":{"parameterUnit":"m.s-1","parameterCategory":1,"la1":30.2991,"la2":30.254,"lo1":-89.0895,"lo2":-89.0444,"dy":0.0017,"dx":0.0017,"nx":28,"ny":28,"refTime":"2024-02-08T03:00:00:Z","depth":0,"parameterNumber":2,"parameterNumberName":"U-component_of_WINDS"},"data":[0,0,0,0,0,0,0,0,0,0,0,0,0,0,0,0,0,0,0,0,0,0,0,0,0,0,0,0,0,0,0,0,0,0,0,0,0,0,0,0,0,0,0,0,0,0,0,0,0,0,0,0,0,0,0,0,0,0,-4.7073,-4.7074,0,-4.7137,-4.7138,-4.7138,-4.7106,-4.7104,-4.7103,-4.7101,-4.7164,-4.7167,-4.7171,0,0,0,0,0,0,0,0,0,0,0,0,0,-4.6923,-4.6926,-4.7073,-4.7074,-4.7075,-4.7137,-4.7138,-4.7138,-4.7106,-4.7104,-4.7102,-4.71,-4.7163,-4.7167,-4.7171,0,0,0,0,0,0,0,0,0,0,0,0,0,-4.6988,-4.6927,-4.7073,-4.7066,-4.7066,-4.7137,-4.7138,-4.7139,-4.7107,-4.7104,-4.7102,-4.7099,-4.7162,-4.7167,-4.7171,-4.7251,0,0,-4.7186,-4.7188,0,0,0,0,0,0,0,0,-4.6984,-4.6993,-4.7067,-4.7067,-4.7067,-4.7111,-4.7108,-4.7176,-4.7107,-4.7091,-4.7101,-4.7098,-4.7148,-4.7154,-4.7172,-4.7254,-4.7257,-4.7187,-4.719,-4.7192,-4.7193,0,0,0,0,0,0,0,-4.698,-4.699,-4.7098,-4.7068,-4.7068,-4.706,-4.7066,-4.7121,-4.7133,-4.7093,-4.709,-4.7099,-4.7148,-4.7167,-4.7173,-4.7258,-4.7186,-4.7191,-4.7194,-4.7196,-4.741,-4.7412,0,0,0,0,0,0,-4.6976,-4.6987,-4.7096,-4.71,-4.7019,-4.7065,-4.7072,-4.7099,-4.7132,-4.7135,-4.7101,-4.7097,-4.716,-4.7167,-4.7175,-4.727,-4.7192,-4.7196,-4.7199,-4.7407,-4.741,-4.7413,0,0,0,0,0,0,-4.6973,-4.6986,-4.7094,-4.7043,-4.7056,-4.707,-4.7101,-4.7102,-4.7121,-4.7138,-4.714,-4.7118,-4.7158,-4.7168,-4.7233,-4.7272,-4.7198,-4.7203,-4.7404,-4.7408,-4.7412,-4.7461,0,0,0,0,0,0,-4.6969,-4.6985,-4.7015,-4.7044,-4.7059,-4.7151,-4.7104,-4.7105,-4.7129,-4.7125,-4.7155,-4.7157,-4.7157,-4.7226,-4.7238,-4.7277,-4.7206,-4.74,-4.7406,-4.741,-4.7456,-4.7466,-4.7475,0,0,0,0,0,-4.6963,-4.7026,-4.7017,-4.703,-4.7097,-4.7153,-4.7162,-4.716,-4.7133,-4.7163,-4.7175,-4.7156,-4.7266,-4.7233,-4.7246,-4.7287,-4.7398,-4.7404,-4.741,-4.7452,-4.7464,-4.7475,0,0,0,0,0,0,-4.7,-4.703,-4.702,-4.7094,-4.7122,-4.7147,-4.7186,-4.7174,-4.7209,-4.7203,-4.72,-4.7207,-4.7274,-4.7288,-4.7249,-4.7367,-4.7328,-4.7337,-4.7355,-4.7367,-4.7376,-4.7371,-4.7211,0,0,0,0,0,-4.7018,-4.7061,-4.7084,-4.7147,-4.7162,-4.7172,-4.7196,-4.7193,-4.7221,-4.7232,-4.7248,-4.7275,-4.7316,-4.7343,-4.7381,-4.7459,-4.7465,-4.7494,-4.7504,-4.7512,-4.7519,-4.7561,-4.7574,-4.7434,-4.7434,-4.7434,0,0,-4.7053,-4.7074,-4.7101,-4.7155,-4.7176,-4.722,-4.7181,-4.723,-4.7262,-4.7239,-4.73,-4.7314,-4.7345,-4.7416,-4.7448,-4.7429,-4.7559,-4.752,-4.7526,-4.7529,-4.7568,-4.7582,-4.7593,-4.7438,-4.7437,-4.7437,0,0,-4.7139,-4.716,-4.7214,-4.7237,-4.7269,-4.7276,-4.729,-4.7318,-4.7326,-4.7389,-4.7372,-4.7412,-4.7482,-4.7504,-4.7525,-4.7622,-4.7606,-4.7635,-4.7685,-4.7725,-4.7736,-4.7746,-4.778,-4.7792,-4.7643,-4.7643,-4.7643,0,-4.7177,-4.7244,-4.7244,-4.7294,-4.7318,-4.7301,-4.7356,-4.7378,-4.7421,-4.7438,-4.7417,-4.7505,-4.7524,-4.7601,-4.7625,-4.7643,-4.7657,-4.763,-4.7735,-4.7745,-4.7754,-4.7786,-4.7798,-4.7646,-4.7646,-4.7645,-4.7645,0,-4.729,-4.7336,-4.7377,-4.742,-4.7449,-4.7501,-4.7509,-4.7539,-4.7534,-4.7543,-4.7608,-4.7631,-4.7674,-4.7692,-4.7688,-4.7769,-4.7756,-4.7735,-4.7695,-4.777,-4.78,-4.7812,-4.7651,-4.765,-4.7649,-4.7648,0,0,-4.7397,-4.7442,-4.7457,-4.7476,-4.7512,-4.7548,-4.76,-4.7643,-4.7668,-4.77,-4.7743,-4.7804,-4.7786,-4.7809,-4.7808,-4.7844,-4.7919,-4.7819,-4.7819,-4.7835,-4.8008,-4.8021,-4.8035,-4.791,-4.7912,-4.7914,-4.8005,0,-4.7485,-4.7576,-4.7578,-4.7662,-4.7705,-4.769,-4.7736,-4.7763,-4.7774,-4.7811,-4.7823,-4.7866,-4.7839,-4.7853,-4.7889,-4.7902,-4.7953,-4.7896,-4.7948,-4.795,-4.7938,-4.8051,-4.8065,-4.815,-4.8017,-4.8019,-4.802,0,-4.7597,-4.7633,-4.7721,-4.7752,-4.777,-4.7811,-4.7851,-4.7887,-4.7918,-4.7924,-4.7951,-4.7945,-4.7998,-4.796,-4.8033,-4.7994,-4.8016,-4.8026,-4.803,-4.8032,-4.7987,-4.8055,-4.8177,-4.8188,-4.8039,-4.8037,-4.8036,0,-4.7665,-4.7736,-4.7797,-4.7815,-4.7853,-4.7882,-4.7899,-4.7927,-4.7953,-4.7989,-4.8005,-4.8047,-4.8069,-4.8101,-4.8106,-4.8077,-4.8179,-4.8141,-4.8184,-4.8184,-4.8203,-4.8201,-4.8328,-4.8222,-4.8222,-4.8221,-4.8221,0,-4.7761,-4.7814,-4.7828,-4.7866,-4.7926,-4.793,-4.7989,-4.8004,-4.803,-4.807,-4.8061,-4.8099,-4.8105,-4.8144,-4.8149,-4.8208,-4.8219,-4.8224,-4.8224,-4.8223,-4.8222,-4.8235,-4.8229,-4.8225,-4.8224,-4.8223,-4.8223,0,-4.7845,-4.7857,-4.7923,-4.7954,-4.7963,-4.8006,-4.8033,-4.8069,-4.808,-4.8131,-4.8143,-4.816,-4.8206,-4.8215,-4.8269,-4.8273,-4.8343,-4.8338,-4.8332,-4.8331,-4.8373,-4.8368,-4.851,-4.8529,-4.8413,-4.8414,-4.8415,0,-4.7904,-4.7945,-4.7981,-4.8008,-4.8027,-4.807,-4.8096,-4.8102,-4.8131,-4.817,-4.8201,-4.8247,-4.8283,-4.8357,-4.8374,-4.8416,-4.8411,-4.8458,-4.8417,-4.8415,-4.8409,-4.8406,-4.841,-4.8465,-4.8466,-4.8467,-4.8468,0,-4.8007,-4.8011,-4.805,-4.8092,-4.8125,-4.8158,-4.8189,-4.8212,-4.8222,-4.8254,-4.8302,-4.833,-4.8386,-4.8431,-4.8473,-4.8491,-4.8481,-4.8482,-4.8493,-4.8491,-4.8486,-4.8488,-4.8351,-4.8477,-4.8476,-4.8476,-4.8475,-4.8475,-4.8079,-4.8115,-4.8146,-4.819,-4.8215,-4.8245,-4.8281,-4.8297,-4.8337,-4.8383,-4.8385,-4.8436,-4.8467,-4.8523,-4.8543,-4.8584,-4.8569,-4.8586,-4.859,-4.8594,-4.8597,-4.8482,-4.8592,-4.8591,-4.8591,-4.8591,-4.8591,0,-4.8179,-4.8199,-4.824,-4.8285,-4.832,-4.831,-4.8345,-4.8375,-4.842,-4.8451,-4.8487,-4.8542,-4.8586,-4.8607,-4.8651,-4.8679,-4.8676,-4.869,-4.8687,-4.8691,-4.8608,-4.8593,-4.8692,-4.8692,-4.8692,-4.8692,-4.8692,-4.8692,-4.8236,-4.8296,-4.8304,-4.8377,-4.8397,-4.8447,-4.8468,-4.8496,-4.852,-4.8582,-4.8618,-4.8633,-4.8659,-4.8705,-4.8745,-4.8751,-4.8766,-4.8782,-4.8785,-4.8707,-4.8697,-4.8687,-4.8672,-4.8786,-4.8786,-4.8864,-4.8865,-4.8865]},{"header":{"parameterUnit":"m.s-1","parameterCategory":1,"la1":30.2991,"la2":30.254,"lo1":-89.0895,"lo2":-89.0444,"dy":0.0017,"dx":0.0017,"nx":28,"ny":28,"refTime":"2024-02-08T03:00:00:Z","depth":0,"parameterNumber":3,"parameterNumberName":"V-component_of_WINDS"},"data":[0,0,0,0,0,0,0,0,0,0,0,0,0,0,0,0,0,0,0,0,0,0,0,0,0,0,0,0,0,0,0,0,0,0,0,0,0,0,0,0,0,0,0,0,0,0,0,0,0,0,0,0,0,0,0,0,0,0,3.644,3.6441,0,3.6486,3.6487,3.6488,3.6452,3.645,3.6449,3.6447,3.6494,3.6496,3.6499,0,0,0,0,0,0,0,0,0,0,0,0,0,3.6322,3.6325,3.644,3.6441,3.6441,3.6486,3.6487,3.6488,3.6452,3.645,3.6448,3.6447,3.6493,3.6496,3.6499,0,0,0,0,0,0,0,0,0,0,0,0,0,3.6372,3.6325,3.644,3.6429,3.6428,3.6486,3.6487,3.6488,3.6452,3.645,3.6448,3.6446,3.6492,3.6495,3.6499,3.657,0,0,3.6512,3.6513,0,0,0,0,0,0,0,0,3.6369,3.6376,3.643,3.643,3.6429,3.6461,3.6462,3.6515,3.6453,3.6443,3.6447,3.6445,3.6485,3.6489,3.6503,3.6572,3.6574,3.6512,3.6514,3.6516,3.6517,0,0,0,0,0,0,0,3.6365,3.6374,3.6458,3.6431,3.643,3.6422,3.6427,3.6472,3.6476,3.6444,3.6441,3.6448,3.6484,3.6499,3.6503,3.6575,3.6512,3.6515,3.6518,3.6519,3.671,3.6712,0,0,0,0,0,0,3.6363,3.6371,3.6457,3.646,3.6393,3.6426,3.6431,3.6453,3.6476,3.6477,3.6449,3.6446,3.6493,3.6499,3.6505,3.6592,3.6516,3.652,3.6522,3.6707,3.671,3.6713,0,0,0,0,0,0,3.6361,3.6371,3.6455,3.6415,3.6425,3.6431,3.6456,3.6455,3.647,3.648,3.648,3.6464,3.6492,3.6499,3.6555,3.6593,3.6522,3.6525,3.6704,3.6708,3.6712,3.6765,0,0,0,0,0,0,3.6357,3.637,3.6397,3.6416,3.6427,3.6504,3.6458,3.6458,3.6477,3.6473,3.6494,3.6495,3.649,3.655,3.6559,3.6597,3.6528,3.67,3.6706,3.671,3.676,3.677,3.6779,0,0,0,0,0,3.6353,3.6409,3.6398,3.6409,3.646,3.6506,3.6513,3.6507,3.648,3.6508,3.6515,3.6494,3.6587,3.6556,3.6566,3.6606,3.6698,3.6704,3.671,3.6756,3.6768,3.6779,0,0,0,0,0,0,3.6392,3.6411,3.6399,3.6462,3.6483,3.65,3.6534,3.652,3.6548,3.6543,3.6534,3.6539,3.6599,3.6608,3.6572,3.6678,3.6639,3.6647,3.667,3.6682,3.6691,3.6688,3.6532,0,0,0,0,0,3.6408,3.6444,3.6458,3.6513,3.6524,3.6528,3.6547,3.6542,3.6563,3.6571,3.6582,3.6603,3.6637,3.666,3.6692,3.6761,3.6767,3.6794,3.6804,3.6812,3.6819,3.686,3.6874,3.6733,3.6733,3.6732,0,0,3.6441,3.6456,3.6479,3.6521,3.6537,3.6575,3.6535,3.6576,3.6605,3.6577,3.6631,3.664,3.6664,3.6728,3.6757,3.6737,3.686,3.6819,3.6826,3.6829,3.6868,3.6881,3.6893,3.6737,3.6736,3.6735,0,0,3.6522,3.6536,3.6585,3.6602,3.6627,3.6629,3.6641,3.6661,3.6667,3.6721,3.6702,3.6737,3.6795,3.6814,3.6831,3.6924,3.6907,3.6934,3.6985,3.7025,3.7036,3.7046,3.7081,3.7094,3.6941,3.6942,3.6942,0,3.656,3.6617,3.6611,3.6655,3.6676,3.6654,3.6704,3.6721,3.6755,3.677,3.6748,3.6824,3.6837,3.6907,3.6931,3.6944,3.6959,3.6931,3.7035,3.7045,3.7054,3.7088,3.7101,3.6945,3.6944,3.6944,3.6944,0,3.6664,3.6704,3.6741,3.6776,3.68,3.6847,3.6849,3.6875,3.6868,3.6874,3.6931,3.6948,3.6985,3.7001,3.6993,3.7071,3.7058,3.7036,3.6996,3.7071,3.7102,3.7115,3.695,3.6948,3.6947,3.6947,0,0,3.6768,3.6803,3.6816,3.6834,3.6861,3.6893,3.694,3.6977,3.7,3.7025,3.7066,3.7118,3.7099,3.7118,3.7113,3.7148,3.7224,3.7122,3.7122,3.7142,3.7314,3.7332,3.7347,3.7214,3.7216,3.7218,3.7313,0,3.6852,3.6935,3.6933,3.701,3.7049,3.7031,3.7072,3.7094,3.7102,3.7136,3.7144,3.7182,3.7152,3.7164,3.7198,3.7208,3.7259,3.7201,3.7253,3.7255,3.7249,3.7363,3.7381,3.747,3.7325,3.7327,3.7329,0,3.696,3.6991,3.7073,3.7099,3.7115,3.7152,3.7188,3.7221,3.7247,3.725,3.7274,3.7265,3.7314,3.7274,3.7343,3.7304,3.7325,3.7334,3.7337,3.7342,3.7297,3.7374,3.7498,3.7513,3.7348,3.7346,3.7345,0,3.7031,3.7093,3.7151,3.7166,3.7197,3.7224,3.7238,3.7262,3.7286,3.7317,3.7333,3.737,3.739,3.7419,3.742,3.739,3.7492,3.745,3.7497,3.7498,3.752,3.7518,3.7652,3.7531,3.7531,3.7531,3.753,0,3.7126,3.7177,3.7184,3.722,3.7278,3.7276,3.7333,3.7345,3.7367,3.7406,3.7391,3.7428,3.7427,3.7465,3.7466,3.7526,3.7534,3.7539,3.7539,3.7541,3.7541,3.7556,3.755,3.7534,3.7533,3.7533,3.7532,0,3.7215,3.7221,3.7284,3.7309,3.7317,3.7359,3.738,3.7415,3.7423,3.7472,3.7484,3.7495,3.7539,3.7544,3.7594,3.7595,3.7668,3.766,3.7659,3.7659,3.7706,3.7703,3.7854,3.7876,3.774,3.7741,3.7742,0,3.7275,3.7315,3.7345,3.7371,3.7387,3.7428,3.7453,3.7453,3.748,3.7515,3.7547,3.759,3.7624,3.7696,3.7709,3.7749,3.7743,3.7794,3.7749,3.7751,3.7747,3.7745,3.7751,3.7803,3.7804,3.7806,3.7807,0,3.7383,3.7385,3.7422,3.7462,3.7493,3.7523,3.7552,3.7574,3.7578,3.7609,3.7655,3.7682,3.7736,3.778,3.782,3.7835,3.7823,3.7821,3.7834,3.7837,3.7837,3.784,3.7685,3.7817,3.7816,3.7815,3.7815,3.7814,3.7461,3.7497,3.7525,3.7568,3.759,3.7618,3.7654,3.7667,3.7705,3.775,3.7747,3.7799,3.7827,3.788,3.7898,3.7939,3.7922,3.7941,3.7946,3.7951,3.7958,3.7829,3.7946,3.7946,3.7946,3.7945,3.7945,0,3.757,3.7588,3.7628,3.767,3.7705,3.7691,3.7723,3.7753,3.7799,3.7826,3.7862,3.7916,3.796,3.7978,3.8021,3.8051,3.8046,3.8062,3.8061,3.8065,3.7969,3.7954,3.8065,3.8065,3.8065,3.8065,3.8065,3.8065,3.7631,3.7692,3.7699,3.7772,3.7789,3.7841,3.7861,3.7888,3.791,3.7972,3.8009,3.8021,3.8045,3.8091,3.8131,3.8135,3.8153,3.8172,3.8174,3.8083,3.8071,3.806,3.8046,3.8175,3.8175,3.8267,3.8268,3.8268]}]]